Home   Weather   Livonia   Past weeks
Flag for USA

Past Weather in Livonia, Michigan, USA — Yesterday and Last 2 Weeks

Now
23 °F

Passing clouds.


Feels Like: 14 °F
Forecast: 31 / 21 °F
Wind: 8 mph from Southwest

Location: Detroit Metropolitan Wayne County Airport

Current Time: Jan 21, 2020 at 9:11:29 pm

Latest Report: Jan 21, 2020 at 7:53 pm


Visibility: 9 mi

Pressure: 30.51 "Hg

Humidity: 78%

Dew Point: 17 °F

Location of LivoniaLocation

Past Weather in Livonia — Graph

°F

Livonia Temperature Yesterday

Maximum temperature yesterday: 26 °F (at 1:53 pm)
Minimum temperature yesterday: 13 °F (at 3:53 am)
Average temperature yesterday: 19 °F

High & Low Weather Summary for the Past Weeks

 TemperatureHumidityPressure
High54 °F (Jan 11, 5:53 am)100% (Jan 7, 11:21 pm)30.87 "Hg (Jan 7, 11:21 pm)
Low13 °F (Jan 20, 3:53 am)32% (Jan 7, 2:53 pm)29.56 "Hg (Jan 18, 2:53 pm)
Average32 °F79%30.19 "Hg
* Reported Jan 6 7:53 pm — Jan 21 7:53 pm, Livonia. Weather by CustomWeather, © 2020

Note: Actual official high and low records may vary slightly from our data, if they occured in-between our weather recording intervals... More about our weather records

Livonia Weather History for the Previous 24 Hours

Scroll right to see more
 ConditionsComfort  
Time TempWeatherWind HumidityBarometerVisibility
7:53 pm
Tue, Jan 21
23 °FPassing clouds.8 mph78%30.51 "Hg9 mi
6:53 pm25 °FPassing clouds.8 mph72%30.51 "Hg10 mi
5:53 pm26 °FPassing clouds.10 mph69%30.51 "Hg10 mi
4:53 pm28 °FPartly sunny.10 mph64%30.52 "Hg10 mi
3:53 pm29 °FPartly sunny.12 mph58%30.53 "Hg10 mi
2:53 pm28 °FPartly sunny.9 mph58%30.53 "Hg10 mi
1:53 pm27 °FPartly sunny.12 mph61%30.54 "Hg10 mi
12:53 pm26 °FScattered clouds.12 mph60%30.58 "Hg10 mi
11:53 am25 °FScattered clouds.10 mph60%30.60 "Hg10 mi
10:53 am23 °FPassing clouds.9 mph65%30.62 "Hg10 mi
9:53 am22 °FScattered clouds.8 mph66%30.63 "Hg10 mi
8:53 am20 °FPartly sunny.8 mph68%30.61 "Hg10 mi
7:53 am20 °FOvercast.8 mph68%30.62 "Hg10 mi
6:53 am21 °FOvercast.12 mph65%30.61 "Hg10 mi
5:53 am21 °FOvercast.9 mph65%30.60 "Hg10 mi
5:24 am22 °FOvercast.9 mph66%30.56 "Hg9 mi
4:53 am22 °FLight snow. Overcast.5 mph66%30.59 "Hg9 mi
3:53 am22 °FLight snow. Overcast.7 mph66%30.59 "Hg9 mi
3:39 am22 °FLight snow. Overcast.7 mph66%30.56 "Hg9 mi
2:53 am22 °FLight snow. Overcast.5 mph68%30.60 "Hg9 mi
2:42 am22 °FLight snow. Overcast.6 mph66%30.56 "Hg9 mi
1:53 am22 °FOvercast.3 mph68%30.59 "Hg10 mi
12:53 am21 °FOvercast.No wind71%30.59 "Hg10 mi
11:53 pm
Mon, Jan 20
20 °FOvercast.3 mph71%30.59 "Hg10 mi
10:53 pm19 °FOvercast.No wind77%30.60 "Hg10 mi
9:53 pm19 °FLight snow. Overcast.No wind71%30.60 "Hg10 mi
Weather by CustomWeather, © 2020

See weather overview

Advertising